Location: Newark
(47.6417°N, 6.8500°E)
Time: 05:35:53
(UTC+00:00)

ISS - Visible Passes

Search period start: 18 November 2019 00:00
Search period end: 28 November 2019 00:00
Orbit: 412 x 421 km, 51.6° (Epoch: 18 November)

Date Brightness Start Highest point End Pass type
(mag) Time Alt. Az. Time Alt. Az. Time Alt. Az.
21 Nov -1.1 18:15:22 10° SSW 18:16:02 14° SSW 18:16:02 14° SSW visible
22 Nov -1.9 17:27:37 10° S 17:29:52 19° SE 17:29:52 19° SE visible
23 Nov -1.4 16:40:30 10° SSE 16:41:50 12° SE 16:43:11 10° ESE visible
23 Nov -2.0 18:14:42 10° SW 18:16:31 29° SW 18:16:31 29° SW visible
24 Nov -3.2 17:26:28 10° SW 17:29:38 41° SSE 17:30:10 38° ESE visible
24 Nov -0.1 19:03:03 10° W 19:03:05 10° W 19:03:05 10° W visible
25 Nov -2.4 16:38:25 10° SSW 16:41:18 27° SE 16:43:46 13° E visible
25 Nov -2.2 18:14:30 10° WSW 18:16:40 36° W 18:16:40 36° W visible
26 Nov -3.9 17:26:00 10° WSW 17:29:22 88° SSE 17:30:11 48° ENE visible
27 Nov -3.5 16:37:36 10° SW 16:40:55 60° SSE 16:43:40 14° ENE visible
27 Nov -2.0 18:14:30 10° W 18:16:34 31° WNW 18:16:34 31° WNW visible
